When you browse on this site, cookies collect data to enhance your experience and personalize the content and advertising you see.
Visit our Privacy Policy to learn more. By continuing to use the site, you agree to this use of cookies and data.
  • In France
  • List of Countries
  • For 7 days
  • Water Temperature
  • Weather Map
  • Weather Widgets
  • user-avatar
    Login

    Hourly Weather Bovec

    Today, 23 August, Friday

    Time Temperature Precipitation Wind Pressure Humidity
    00:00 +16°C° 0.1 mm 2 mps 697 mmHg 92%
    01:00 +16°C° 0.1 mm 2 mps 697 mmHg 92%
    02:00 +16°C° 0.2 mm 2 mps 697 mmHg 93%
    03:00 +16°C° 0.2 mm 2 mps 697 mmHg 93%
    04:00 +16°C° 0.2 mm 2 mps 697 mmHg 94%
    05:00 +16°C° 0.2 mm 2 mps 697 mmHg 94%
    06:00 +16°C° 0.2 mm 2 mps 697 mmHg 94%
    07:00 +17°C° 0.2 mm 2 mps 697 mmHg 94%
    08:00 +18°C° 0.1 mm 2 mps 698 mmHg 88%
    09:00 +20°C° 0.1 mm 2 mps 698 mmHg 81%
    10:00 +23°C° 0.1 mm 2 mps 699 mmHg 75%
    11:00 +23°C° 0.2 mm 2 mps 699 mmHg 72%
    12:00 +24°C° 0.2 mm 2 mps 698 mmHg 69%
    13:00 +25°C° 0.2 mm 2 mps 698 mmHg 66%
    14:00 +25°C° 0.9 mm 1 mps 698 mmHg 69%
    15:00 +25°C° 0.9 mm 1 mps 698 mmHg 72%
    16:00 +24°C° 0.9 mm 1 mps 697 mmHg 74%
    17:00 +23°C° 0.5 mm 1 mps 697 mmHg 80%
    18:00 +21°C° 0.5 mm 1 mps 697 mmHg 85%
    19:00 +20°C° 0.5 mm 1 mps 696 mmHg 91%
    20:00 +20°C° 0.9 mm 1 mps 696 mmHg 91%
    21:00 +19°C° 0.9 mm 1 mps 696 mmHg 92%
    22:00 +19°C° 0.9 mm 1 mps 696 mmHg 92%
    23:00 +18°C° 0.2 mm 1 mps 696 mmHg 91%

    Tomorrow, 24 August, Saturday

    Time Temperature Precipitation Wind Pressure Humidity
    00:00 +18°C° 0.2 mm 1 mps 696 mmHg 91%
    01:00 +18°C° 0.2 mm 1 mps 696 mmHg 90%
    02:00 +17°C° 0.2 mm 2 mps 696 mmHg 91%
    03:00 +17°C° 0.2 mm 2 mps 696 mmHg 91%
    04:00 +17°C° 0.2 mm 2 mps 696 mmHg 91%
    05:00 +17°C° 0.2 mm 2 mps 696 mmHg 91%
    06:00 +18°C° 0.2 mm 2 mps 696 mmHg 91%
    07:00 +18°C° 0.2 mm 2 mps 696 mmHg 91%
    08:00 +21°C° 0.2 mm 1 mps 696 mmHg 86%
    09:00 +22°C° 0.2 mm 1 mps 696 mmHg 80%
    10:00 +24°C° 0.2 mm 1 mps 697 mmHg 75%
    11:00 +25°C° 0.7 mm 1 mps 697 mmHg 71%
    12:00 +26°C° 0.7 mm 1 mps 696 mmHg 67%
    13:00 +27°C° 0.7 mm 1 mps 696 mmHg 62%
    14:00 +27°C° 0.4 mm 1 mps 696 mmHg 63%
    15:00 +26°C° 0.4 mm 1 mps 696 mmHg 64%
    16:00 +26°C° 0.4 mm 1 mps 696 mmHg 65%
    17:00 +24°C° 0.2 mm 1 mps 695 mmHg 71%
    18:00 +22°C° 0.2 mm 1 mps 695 mmHg 76%
    19:00 +21°C° 0.2 mm 1 mps 695 mmHg 81%
    20:00 +20°C° 0.2 mm 1 mps 695 mmHg 81%
    21:00 +19°C° 0.2 mm 1 mps 695 mmHg 82%
    22:00 +19°C° 0.2 mm 1 mps 695 mmHg 82%
    23:00 +17°C° 0.1 mm 2 mps 695 mmHg 83%

    Day after tomorrow, 25 August, Sunday

    Time Temperature Precipitation Wind Pressure Humidity
    00:00 +17°C° 0.1 mm 2 mps 695 mmHg 85%
    01:00 +17°C° 0.1 mm 2 mps 694 mmHg 86%
    02:00 +16°C° 0.1 mm 2 mps 694 mmHg 85%
    03:00 +16°C° 0.1 mm 2 mps 694 mmHg 85%
    04:00 +16°C° 0.1 mm 2 mps 694 mmHg 84%
    05:00 +17°C° 0 mm 2 mps 694 mmHg 83%
    06:00 +18°C° 0 mm 2 mps 694 mmHg 82%
    07:00 +20°C° 0 mm 1 mps 695 mmHg 81%
    08:00 +22°C° 0.1 mm 1 mps 695 mmHg 74%
    09:00 +24°C° 0.1 mm 1 mps 696 mmHg 67%
    10:00 +26°C° 0.1 mm 1 mps 696 mmHg 60%
    11:00 +27°C° 0.5 mm 1 mps 696 mmHg 59%
    12:00 +27°C° 0.5 mm 1 mps 696 mmHg 58%
    13:00 +27°C° 0.5 mm 1 mps 696 mmHg 56%
    14:00 +27°C° 0.3 mm 1 mps 696 mmHg 57%
    15:00 +27°C° 0.3 mm 1 mps 695 mmHg 58%
    16:00 +27°C° 0.3 mm 1 mps 695 mmHg 59%
    17:00 +25°C° 0.1 mm 1 mps 695 mmHg 65%
    18:00 +23°C° 0.1 mm 1 mps 695 mmHg 72%
    19:00 +21°C° 0.1 mm 1 mps 694 mmHg 78%
    20:00 +20°C° 0.1 mm 1 mps 694 mmHg 78%
    21:00 +20°C° 0.1 mm 1 mps 695 mmHg 78%
    22:00 +18°C° 0.1 mm 2 mps 695 mmHg 78%
    23:00 +18°C° 0.1 mm 2 mps 695 mmHg 78%

    26 August, Monday

    Time Temperature Precipitation Wind Pressure Humidity
    00:00 +17°C° 0.1 mm 2 mps 695 mmHg 79%
    01:00 +17°C° 0.1 mm 2 mps 694 mmHg 79%
    02:00 +17°C° 0 mm 2 mps 694 mmHg 79%
    03:00 +17°C° 0 mm 2 mps 694 mmHg 79%
    04:00 +17°C° 0 mm 2 mps 694 mmHg 79%
    05:00 +17°C° 0 mm 2 mps 694 mmHg 79%
    06:00 +18°C° 0 mm 2 mps 694 mmHg 79%
    07:00 +19°C° 0 mm 2 mps 695 mmHg 79%
    08:00 +22°C° 0.1 mm 1 mps 695 mmHg 71%
    09:00 +25°C° 0.1 mm 1 mps 695 mmHg 63%
    10:00 +27°C° 0.1 mm 1 mps 696 mmHg 56%
    11:00 +27°C° 0.5 mm 1 mps 696 mmHg 54%
    12:00 +28°C° 0.5 mm 1 mps 696 mmHg 52%
    13:00 +28°C° 0.5 mm 1 mps 695 mmHg 51%
    14:00 +28°C° 0.4 mm 1 mps 695 mmHg 53%
    15:00 +27°C° 0.4 mm 1 mps 695 mmHg 56%
    16:00 +27°C° 0.4 mm 1 mps 695 mmHg 59%
    17:00 +25°C° 0.2 mm 1 mps 694 mmHg 65%
    18:00 +23°C° 0.2 mm 1 mps 694 mmHg 71%
    19:00 +21°C° 0.2 mm 1 mps 693 mmHg 77%
    20:00 +20°C° 0.1 mm 1 mps 694 mmHg 76%
    21:00 +20°C° 0.1 mm 1 mps 694 mmHg 76%
    22:00 +19°C° 0.1 mm 1 mps 694 mmHg 76%
    23:00 +18°C° 0 mm 2 mps 694 mmHg 75%

    27 August, Tuesday

    Time Temperature Precipitation Wind Pressure Humidity
    00:00 +18°C° 0 mm 2 mps 694 mmHg 74%
    01:00 +18°C° 0 mm 2 mps 694 mmHg 74%
    02:00 +17°C° 0 mm 2 mps 694 mmHg 73%
    03:00 +17°C° 0 mm 2 mps 693 mmHg 73%
    04:00 +17°C° 0 mm 2 mps 693 mmHg 73%
    05:00 +18°C° 0 mm 2 mps 693 mmHg 73%
    06:00 +20°C° 0 mm 1 mps 694 mmHg 74%
    07:00 +20°C° 0 mm 1 mps 694 mmHg 75%
    08:00 +22°C° 0.1 mm 1 mps 694 mmHg 69%
    09:00 +24°C° 0.1 mm 1 mps 695 mmHg 63%
    10:00 +27°C° 0.1 mm 1 mps 695 mmHg 56%
    11:00 +27°C° 0.5 mm 1 mps 695 mmHg 55%
    12:00 +27°C° 0.5 mm 1 mps 695 mmHg 54%
    13:00 +28°C° 0.5 mm 1 mps 695 mmHg 53%
    14:00 +28°C° 0.4 mm 1 mps 695 mmHg 54%
    15:00 +27°C° 0.4 mm 1 mps 695 mmHg 55%
    16:00 +27°C° 0.4 mm 1 mps 694 mmHg 56%
    17:00 +25°C° 0.3 mm 1 mps 694 mmHg 62%
    18:00 +23°C° 0.3 mm 1 mps 694 mmHg 69%
    19:00 +21°C° 0.3 mm 1 mps 693 mmHg 75%
    20:00 +20°C° 0.1 mm 1 mps 694 mmHg 75%
    21:00 +20°C° 0.1 mm 1 mps 694 mmHg 76%
    22:00 +18°C° 0.1 mm 2 mps 694 mmHg 77%
    23:00 +19°C° 0 mm 1 mps 694 mmHg 76%

    28 August, Wednesday

    Time Temperature Precipitation Wind Pressure Humidity
    00:00 +19°C° 0 mm 1 mps 694 mmHg 75%
    01:00 +18°C° 0 mm 1 mps 694 mmHg 74%
    02:00 +18°C° 0 mm 1 mps 693 mmHg 74%
    03:00 +18°C° 0 mm 1 mps 693 mmHg 74%
    04:00 +18°C° 0 mm 1 mps 693 mmHg 74%
    05:00 +19°C° 0 mm 1 mps 693 mmHg 74%
    06:00 +20°C° 0 mm 1 mps 693 mmHg 75%
    07:00 +20°C° 0 mm 1 mps 694 mmHg 75%
    08:00 +23°C° 0 mm 1 mps 694 mmHg 67%
    09:00 +25°C° 0 mm 1 mps 694 mmHg 59%
    10:00 +27°C° 0 mm 1 mps 694 mmHg 51%
    11:00 +27°C° 0.3 mm 1 mps 694 mmHg 52%
    12:00 +27°C° 0.3 mm 1 mps 694 mmHg 54%
    13:00 +27°C° 0.3 mm 2 mps 694 mmHg 55%
    14:00 +26°C° 1 mm 2 mps 693 mmHg 61%
    15:00 +26°C° 1 mm 1 mps 693 mmHg 67%
    16:00 +25°C° 1 mm 1 mps 692 mmHg 73%
    17:00 +23°C° 0.7 mm 1 mps 692 mmHg 78%
    18:00 +21°C° 0.7 mm 1 mps 691 mmHg 83%
    19:00 +19°C° 0.7 mm 1 mps 691 mmHg 88%
    20:00 +19°C° 0.3 mm 1 mps 691 mmHg 88%
    21:00 +18°C° 0.3 mm 1 mps 691 mmHg 88%
    22:00 +18°C° 0.3 mm 1 mps 691 mmHg 88%
    23:00 +16°C° 0 mm 1 mps 691 mmHg 88%
    Show more